User: anonymous   Login
Location: Avenches
(46.8809°N, 7.0410°E)
Time: 00:49:18
(UTC+00:00)
Language:

STARLINK-1243 - Orbit

View from above orbital plane
View from above orbital plane
View from above satellite
View from above satellite

Ground track
Ground track

The orbit data is extracted from the following two-line orbital elements,

1 45234U 20012BJ  20192.91667824  .00025878  00000-0  17899-2 0  9996
2 45234  52.9990 329.2122 0001346 100.3941 175.2873 15.05554988 22273
Epoch (UTC): 10 July 2020 22:00:01
Eccentricity: 0.0001346
inclination: 52.9990°
perigee height: 549 km
apogee height: 551 km
right ascension of ascending node: 329.2122°
argument of perigee: 100.3941°
revolutions per day: 15.05554988
mean anomaly at epoch: 175.2873°
orbit number at epoch: 2227

The dashed part of the orbit path shows where the satellite is in the earth's shadow,  

DLR